This demonstration page uses our WeatherBlox Daily Observations layout. Learn more.

Left ArrowRight Arrow

39.12711, -84.51439

Hourly Observations for June 18, 2018

Temp ( °F °C ) Dew Point ( °F °C ) Humidity (%) Winds ( mph kmh ) Pressure ( in mb ) Visibility ( mi km ) Precip ( " mm )
12:53 am 00:53 Clear with Mist and Fog 75 23.9 74 23.3 96 96 N N/A 30.06 1018 6 10 N/A
1:53 am 01:53 Clear with Mist and Fog 74 23.3 74 23.3 100 100 SW 3 6 30.07 1018 6 10 N/A
2:53 am 02:53 Clear with Mist and Fog 74 23.3 74 23.3 100 100 N N/A 30.06 1018 5 8 N/A
3:53 am 03:53 Clear with Mist and Fog 73 22.8 72 22.2 96 96 N N/A 30.06 1018 5 8 N/A
4:16 am 04:16 Clear with Mist and Fog 73 22.8 73 22.8 100 100 N N/A 30.03 1017 2 3 N/A
4:41 am 04:41 Clear with Mist and Fog 72 22.2 72 22.2 100 100 N N/A 30.03 1017 4 6 N/A
4:53 am 04:53 Clear with Mist and Fog 72 22.2 72 22.2 100 100 N N/A 30.05 1018 5 8 N/A
5:34 am 05:34 Clear with Mist and Fog 72 22.2 72 22.2 100 100 N N/A 30.03 1017 1 2 N/A
5:42 am 05:42 Clear with Mist and Fog 71 21.7 71 21.7 100 100 N N/A 30.03 1017 1 1 N/A
5:50 am 05:50 Clear with Mist and Fog 72 22 72 22 100 100 SSW 3 6 30.06 1018 1 2 N/A
5:53 am 05:53 Clear with Mist and Fog 72 22.2 72 22.2 100 100 N N/A 30.06 1018 1 2 N/A
6:21 am 06:21 Sunny with Mist and Fog 70 21.1 70 21.1 100 100 N N/A 30.06 1018 3 4 N/A
6:53 am 06:53 Sunny with Mist and Fog 72 22.2 72 22.2 100 100 N N/A 30.07 1018 5 8 N/A
7:53 am 07:53 Sunny with Mist and Fog 75 23.9 74 23.3 96 96 N N/A 30.07 1018 5 8 N/A
8:53 am 08:53 Hazy 82 27.8 76 24.4 82 82 SW 5 7 30.09 1019 6 10 N/A
9:53 am 09:53 Sunny 86 30 75 23.9 70 70 W 7 11 30.08 1019 9 14 N/A
10:53 am 10:53 Sunny 89 31.7 73 22.8 59 59 W 9 15 30.08 1019 8 13 N/A
11:53 am 11:53 Mostly Sunny 91 32.8 73 22.8 56 56 W 13 20 30.07 1018 10 16 N/A
12:53 pm 12:53 Partly Cloudy 92 33.3 71 21.7 51 51 WSW 12 19 30.07 1018 10 16 N/A
1:53 pm 13:53 Partly Cloudy 93 33.9 72 22.2 50 50 WNW 8 13 30.05 1018 10 16 N/A
2:53 pm 14:53 Partly Cloudy 91 32.8 71 21.7 52 52 WSW 9 15 30.03 1017 10 16 N/A
3:53 pm 15:53 Mostly Cloudy 92 33.3 71 21.7 51 51 W 14 22 30.01 1016 10 16 N/A
4:53 pm 16:53 Partly Cloudy 93 33.9 71 21.7 49 49 W 14 22 29.98 1015 10 16 N/A
5:53 pm 17:53 Partly Cloudy 92 33.3 71 21.7 51 51 WSW 9 15 29.96 1015 10 16 N/A
6:53 pm 18:53 Mostly Sunny 91 32.8 71 21.7 52 52 SW 15 24 29.94 1014 10 16 N/A
7:53 pm 19:53 Sunny 90 32.2 71 21.7 54 54 W 9 15 29.95 1014 10 16 N/A
8:53 pm 20:53 Sunny 87 30.6 72 22.2 61 61 W 10 17 29.96 1015 10 16 N/A
9:53 pm 21:53 Clear 85 29.4 72 22.2 65 65 W 5 7 29.97 1015 10 16 N/A
10:53 pm 22:53 Clear 84 28.9 73 22.8 70 70 WSW 9 15 29.99 1016 10 16 N/A
11:53 pm 23:53 Clear 81 27.2 73 22.8 77 77 SW 5 7 29.99 1016 10 16 N/A

Powered by AerisWeather